Hourly Data Report for September 30, 2017

All times are specified in Local Standard Time (LST). Add 1 hour to adjust for Daylight Saving Time where and when it is observed.

HALL BEACH A
NUNAVUT

68°46'33.000" N
81°14'33.000" W
9.10 m
2402354
71293
YUX

Related Data

No related data is available for this station

Download Data

Hourly Data (September 2017)
Hourly Data Report for September 30, 2017
Temp Definition
°C
Dew Point Temp Definition
°C
Rel Hum Definition
%
Wind Dir Definition
10's deg

Wind Spd Definition
km/h
Visibility Definition
km
Stn Press Definition
kPa
Hmdx Definition


Wind Chill Definition


Weather Definition


TIME
00:00 Legend Double Dagger -2.8 -5.0 85 10 34 11.3 100.05   -11 Snow
01:00 Legend Double Dagger -2.8 -5.1 84 9 35 16.1 100.05   -11 Snow
02:00 Legend Double Dagger -3.1 -5.2 86 8 39 6.4 100.08   -11 Snow
03:00 Legend Double Dagger -3.2 -6.0 81 7 39 16.1 100.13   -12 Snow
04:00 Legend Double Dagger -3.4 -6.3 80 6 37 16.1 100.20   -12 LegendNANA
05:00 Legend Double Dagger -3.4 -6.9 77 6 30 16.1 100.25   -11 LegendNANA
06:00 Legend Double Dagger -3.9 -7.6 76 4 32 16.1 100.31   -12 LegendNANA
07:00 Legend Double Dagger -4.4 -7.8 77 3 34 16.1 100.33   -13 LegendNANA
08:00 Legend Double Dagger -5.4 -8.4 80 1 32 16.1 100.37   -14 LegendNANA
09:00 Legend Double Dagger -6.1 -9.0 80 36 41 16.1 100.38   -16 Snow
10:00 Legend Double Dagger -4.5 -7.4 80 3 39 16.1 100.37   -13 LegendNANA
11:00 Legend Double Dagger -4.7 -8.4 76 2 39 14.5 100.44   -14 LegendNANA
12:00 Legend Double Dagger -3.8 -7.4 76 2 43 16.1 100.48   -13 LegendNANA
13:00 Legend Double Dagger -2.5 -5.6 80 1 43 16.1 100.52   -11 LegendNANA
14:00 Legend Double Dagger -1.7 -4.9 79 1 41 16.1 100.57   -10 LegendNANA
15:00 Legend Double Dagger -1.8 -4.6 81 36 46 16.1 100.63   -10 LegendNANA
16:00 Legend Double Dagger -1.8 -4.9 80 36 45 16.1 100.71   -10 LegendNANA
17:00 Legend Double Dagger -2.3 -5.0 82 35 43 16.1 100.79   -11 LegendNANA
18:00 Legend Double Dagger -2.2 -5.2 80 35 41 16.1 100.87   -10 LegendNANA
19:00 Legend Double Dagger -2.4 -5.9 77 35 43 16.1 100.95   -11 LegendNANA
20:00 Legend Double Dagger -2.9 -5.6 82 34 35 16.1 101.03   -11 LegendNANA
21:00 Legend Double Dagger -3.3 -5.5 85 33 30 16.1 101.09   -11 LegendNANA
22:00 Legend Double Dagger -3.6 -5.8 85 34 32 16.1 101.14   -11 LegendNANA
23:00 Legend Double Dagger -4.1 -6.2 85 33 35 16.1 101.19   -12 LegendNANA

Notes on Data Quality.

Legend

  • E = Estimated
  • M = Missing
  • NA = Not Available
  • ‡ = Partner data that is not subject to review by the National Climate Archives
Date modified: